Hourly Data Report for July 08, 2020

OTTAWA INTL A
ONTARIO
Current Station Operator: NAVCAN

45°19'00.000" N
75°40'00.000" W
114.90 m
6106001
71628
YOW

Download Data

Hourly Data (July 2020)
Hourly Data Report for July 8, 2020
TIME Temp Definition
°C
Dew Point Definition
°C
Rel Hum Definition
%
Wind Dir Definition
10's deg

Wind Spd Definition
km/h
Visibility Definition
km
Stn Press Definition
kPa
Hmdx Definition


Wind Chill Definition


Weather Definition


00:00 25.6 19.9 70 22 12 24.1 99.77 33   LegendNANA
01:00 24.9 20.1 75 18 5 24.1 99.80 33   Mostly Cloudy
02:00 23.7 20.2 81 24 9 16.1 99.82 31   Rain Showers
03:00 22.4 20.3 88 5 6 24.1 99.79 30   LegendNANA
04:00 20.7 19.7 94 13 6 24.1 99.82 28   Mainly Clear
05:00 21.3 19.9 92 21 9 24.1 99.87 29   LegendNANA
06:00 23.0 20.2 84 23 9 24.1 99.85 31   LegendNANA
07:00 24.4 20.4 78 24 9 24.1 99.85 32   Mainly Clear
08:00 25.9 20.3 71 25 10 24.1 99.87 34   LegendNANA
09:00 28.4 20.1 60 24 9 24.1 99.84 36   LegendNANA
10:00 29.0 20.2 58 23 10 24.1 99.83 37   Mainly Clear
11:00 29.8 20.2 56 27 12 24.1 99.84 38   LegendNANA
12:00 31.4 20.1 50 26 20 24.1 99.82 39   LegendNANA
13:00 32.3 19.3 45 28 16 24.1 99.78 39   Mainly Clear
14:00 29.9 21.4 59 3 18 24.1 99.76 39   LegendNANA
15:00 32.3 20.1 48 36 15 24.1 99.74 40   LegendNANA
16:00 32.8 19.3 44 30 10 24.1 99.70 40   Mainly Clear
17:00 33.4 15.6 34 30 25 24.1 99.68 38   LegendNANA
18:00 32.5 16.1 37 28 11 24.1 99.67 37   LegendNANA
19:00 29.9 19.8 54 10 11 24.1 99.69 37   Mainly Clear
20:00 26.5 19.6 65 10 8 24.1 99.74 34   LegendNANA
21:00 25.4 19.8 71 11 10 24.1 99.79 33   LegendNANA
22:00 24.5 20.0 75 15 8 24.1 99.84 32   Mainly Clear
23:00 24.7 20.2 76 18 10 24.1 99.86 32   LegendNANA

Notes on Data Quality.

Legend

  • E = Estimated
  • M = Missing
  • NA = Not Available*
  • [empty] = Indicates an unobserved value
Date modified: